Jackson, TN

2:25 AM CDT on September 16, 2019 (GMT -0500)
McKellar-Sipes Regional

Weather History for KMKL - July, 2019

Change the Weather History Date:

Tuesday, July 16, 2019

  Actual Average Record
Temperature  
Mean Temperature 78 °F 80 °F  
Max Temperature 83 °F 91 °F 105 °F (1980)
Min Temperature 72 °F 69 °F 54 °F (2014)
Degree Days  
Heating Degree Days 0 0  
Month to date heating degree days 0 0  
Since 1 June heating degree days 1 2  
Since 1 July heating degree days 0 0  
Cooling Degree Days 13 15  
Month to date cooling degree days 254 233  
Year to date cooling degree days 835 787  
Since 1 June cooling degree days 575 572  
Growing Degree Days 27 (Base 50)    
Moisture  
Dew Point 73 °F    
Average Humidity 87    
Maximum Humidity 94    
Minimum Humidity 79    
Precipitation  
Precipitation 2.33 in 0.15 in 2.38 in (2018)
Month to date precipitation 7.18 2.36  
Year to date precipitation 40.00 30.74  
Sea Level Pressure  
Sea Level Pressure 30.00 in    
Wind  
Wind Speed 9 mph (SSW)    
Max Wind Speed 22 mph    
Max Gust Speed 27 mph    
Visibility 7 miles    
Events Fog , Rain , Thunderstorm    
T = Trace of Precipitation, MM = Missing Value Source: NWS Daily Summary

Daily Weather History Graph

Daily Weather History Graph

Search for Another Location

Airport or City:

Astronomy

Jul. 16, 2019 Rise Set
Actual Time 5:52 AM CDT 8:11 PM CDT
Civil Twilight 5:22 AM CDT 8:40 PM CDT
Nautical Twilight 4:46 AM CDT 9:16 PM CDT
Astronomical Twilight 4:07 AM CDT 9:55 PM CDT
Moon 8:16 PM CDT 5:30 AM CDT
Length of Visible Light 15h 17m
Length of Day
14h 19m
Full, 100% of the Moon is Illuminated
Jul 16
Full
Jul 16
Full
Jul 24
Last Quarter
Jul 31
New
Aug 7
First Quarter

Hourly Weather History & Observations

Time (CDT) Temp. Heat Index Dew Point Humidity Pressure Visibility Wind Dir Wind Speed Gust Speed Precip Events Conditions
12:53 AM 75.0 °F - 72.0 °F 90% 29.97 in 10.0 mi South 10.4 mph - N/A   Overcast
1:33 AM 75.0 °F - 73.0 °F 94% 29.99 in 10.0 mi South 6.9 mph - N/A   Overcast
1:53 AM 75.9 °F - 73.0 °F 91% 29.97 in 10.0 mi South 9.2 mph - N/A   Overcast
2:32 AM 75.9 °F - 73.0 °F 91% 29.98 in 7.0 mi SSW 6.9 mph 19.6 mph 0.02 in Rain Light Rain
2:40 AM 75.0 °F - 73.0 °F 94% 29.97 in 1.5 mi SW 17.3 mph 24.2 mph 0.05 in Rain Heavy Rain
2:49 AM 73.4 °F - 71.6 °F 94% 29.98 in 2.0 mi SSW 15.0 mph 25.3 mph 0.18 in Rain Rain
2:53 AM 73.9 °F - 72.0 °F 93% 29.97 in 1.8 mi SW 12.7 mph 25.3 mph 0.24 in Rain Heavy Rain
3:04 AM 73.9 °F - 73.0 °F 97% 29.97 in 3.0 mi SSW 10.4 mph 18.4 mph 0.17 in Rain Rain
3:53 AM 73.9 °F - 73.0 °F 97% 29.96 in 4.0 mi South 8.1 mph - 0.41 in Rain Light Rain
4:53 AM 75.0 °F - 73.9 °F 96% 29.96 in 10.0 mi South 8.1 mph - 0.04 in   Overcast
5:05 AM 75.0 °F - 73.9 °F 96% 29.98 in 10.0 mi South 8.1 mph - N/A   Overcast
5:41 AM 75.0 °F - 73.9 °F 96% 30.00 in 10.0 mi South 9.2 mph - N/A   Mostly Cloudy
5:53 AM 75.0 °F - 73.9 °F 96% 29.98 in 10.0 mi South 9.2 mph - N/A   Mostly Cloudy
6:20 AM 75.9 °F - 73.9 °F 94% 30.00 in 8.0 mi South 9.2 mph - 0.01 in Rain Light Rain
6:46 AM 75.9 °F - 75.0 °F 97% 30.01 in 5.0 mi SW 8.1 mph - 0.01 in Rain , Thunderstorm Thunderstorms and Rain
6:50 AM 75.2 °F - 75.2 °F 100% 30.01 in 3.0 mi SW 9.2 mph - 0.02 in Rain , Thunderstorm Thunderstorms and Rain
6:53 AM 75.9 °F - 75.0 °F 97% 30.00 in 2.0 mi WSW 9.2 mph - 0.02 in Rain , Thunderstorm Thunderstorms and Rain
6:59 AM 73.9 °F - 73.0 °F 97% 30.02 in 0.8 mi WSW 17.3 mph 23.0 mph 0.01 in Rain , Thunderstorm Heavy Thunderstorms and Rain
7:02 AM 73.0 °F - 71.1 °F 93% 30.01 in 0.5 mi SSW 9.2 mph 23.0 mph 0.03 in Fog , Rain , Thunderstorm Heavy Rain
7:08 AM 73.0 °F - 72.0 °F 96% 30.02 in 0.2 mi WSW 11.5 mph - 0.13 in Fog , Rain Heavy Rain
7:13 AM 72.0 °F - 72.0 °F 100% 30.01 in 0.2 mi SW 9.2 mph - 0.23 in Fog , Rain , Thunderstorm Heavy Rain
7:15 AM 72.0 °F - 72.0 °F 100% 30.01 in 0.5 mi SW 8.1 mph - 0.27 in Fog , Rain , Thunderstorm Heavy Rain
7:26 AM 72.0 °F - 72.0 °F 100% 30.01 in 1.0 mi Variable 5.8 mph - 0.50 in Rain Heavy Rain
7:37 AM 72.0 °F - 72.0 °F 100% 30.01 in 3.0 mi Calm Calm - 0.74 in Rain Light Rain
7:53 AM 72.0 °F - 71.1 °F 97% 30.00 in 10.0 mi SE 5.8 mph - 1.00 in Rain Light Rain
8:53 AM 78.1 °F - 75.0 °F 90% 30.00 in 10.0 mi South 9.2 mph - 0.03 in   Overcast
9:10 AM 79.0 °F - 75.9 °F 90% 30.01 in 10.0 mi South 13.8 mph 20.7 mph N/A   Mostly Cloudy
9:53 AM 80.1 °F 85.1 °F 75.0 °F 85% 30.00 in 10.0 mi SSW 13.8 mph 20.7 mph N/A   Overcast
10:41 AM 81.0 °F 86.7 °F 75.0 °F 82% 30.01 in 10.0 mi SSW 13.8 mph 23.0 mph N/A   Overcast
10:53 AM 82.0 °F 88.6 °F 75.0 °F 79% 30.00 in 10.0 mi South 17.3 mph 26.5 mph N/A   Overcast
11:13 AM 82.9 °F 90.2 °F 75.0 °F 77% 30.01 in 10.0 mi SSW 15.0 mph 21.9 mph N/A   Mostly Cloudy
11:37 AM 82.0 °F 87.9 °F 73.9 °F 76% 30.01 in 10.0 mi SSW 17.3 mph 26.5 mph N/A Thunderstorm Thunderstorm
11:53 AM 75.9 °F - 71.1 °F 85% 30.03 in 10.0 mi WSW 15.0 mph 26.5 mph N/A Thunderstorm Thunderstorm
11:57 AM 75.9 °F - 72.0 °F 87% 30.03 in 7.0 mi West 15.0 mph - 0.01 in Rain , Thunderstorm Rain
12:07 PM 73.9 °F - 72.0 °F 93% 30.04 in 5.0 mi SW 12.7 mph 23.0 mph 0.02 in Rain , Thunderstorm Light Thunderstorms and Rain
12:15 PM 73.9 °F - 72.0 °F 93% 30.04 in 2.0 mi WSW 15.0 mph 19.6 mph 0.08 in Rain , Thunderstorm Light Thunderstorms and Rain
12:22 PM 73.9 °F - 73.0 °F 97% 30.04 in 1.5 mi West 13.8 mph 19.6 mph 0.11 in Rain , Thunderstorm Thunderstorms and Rain
12:33 PM 73.0 °F - 73.0 °F 100% 30.04 in 1.0 mi WSW 10.4 mph - 0.14 in Rain Heavy Rain
12:51 PM 73.4 °F - 73.4 °F 100% 30.03 in 3.0 mi SW 5.8 mph - 0.20 in Rain Light Rain
12:53 PM 73.0 °F - 73.0 °F 100% 30.02 in 5.0 mi SSW 8.1 mph - 0.21 in Rain Light Rain
1:35 PM 75.9 °F - 73.0 °F 91% 30.03 in 1.5 mi SW 15.0 mph 23.0 mph 0.12 in Rain Heavy Rain
1:50 PM 73.4 °F - 71.6 °F 94% 30.02 in 3.0 mi SW 9.2 mph - 0.16 in Rain Light Rain
1:53 PM 73.9 °F - 73.0 °F 97% 30.01 in 6.0 mi SW 9.2 mph - 0.17 in Rain Light Rain
2:53 PM 78.1 °F - 73.9 °F 87% 29.99 in 10.0 mi WSW 12.7 mph 24.2 mph 0.14 in   Scattered Clouds
3:17 PM 79.0 °F - 73.9 °F 84% 30.00 in 10.0 mi SW 13.8 mph 21.9 mph 0.04 in   Mostly Cloudy
3:53 PM 78.1 °F - 73.0 °F 84% 29.99 in 10.0 mi SW 9.2 mph - 0.07 in   Overcast
4:11 PM 80.1 °F 84.5 °F 73.9 °F 81% 29.99 in 10.0 mi West 8.1 mph - N/A   Scattered Clouds
4:53 PM 80.1 °F 84.5 °F 73.9 °F 81% 29.97 in 10.0 mi SW 9.2 mph - N/A   Clear
5:53 PM 80.1 °F 84.5 °F 73.9 °F 81% 29.96 in 10.0 mi SW 4.6 mph - N/A   Overcast
6:30 PM 79.0 °F - 75.0 °F 88% 29.98 in 10.0 mi West 9.2 mph - 0.00 in   Overcast
6:46 PM 79.0 °F - 75.0 °F 88% 29.98 in 10.0 mi SW 4.6 mph - 0.00 in   Mostly Cloudy
6:53 PM 79.0 °F - 75.0 °F 88% 29.97 in 10.0 mi SSW 6.9 mph - 0.00 in   Scattered Clouds
7:53 PM 77.0 °F - 73.9 °F 90% 29.97 in 10.0 mi SSW 5.8 mph - N/A   Mostly Cloudy
8:53 PM 77.0 °F - 73.9 °F 90% 29.98 in 10.0 mi South 5.8 mph - N/A   Mostly Cloudy
9:12 PM 75.9 °F - 73.9 °F 94% 30.00 in 10.0 mi SSW 5.8 mph - N/A   Mostly Cloudy
9:23 PM 75.9 °F - 73.9 °F 94% 30.01 in 10.0 mi SSW 5.8 mph - N/A   Mostly Cloudy
9:53 PM 75.9 °F - 73.9 °F 94% 30.00 in 10.0 mi South 8.1 mph - N/A   Scattered Clouds
10:53 PM 75.9 °F - 73.9 °F 94% 29.99 in 10.0 mi South 5.8 mph - N/A   Overcast
11:53 PM 75.9 °F - 73.0 °F 91% 30.00 in 10.0 mi SSW 9.2 mph - N/A   Overcast